Weather History for Stevens Point, WI

Change the Weather History Date:

Friday, November 9, 2012

  Actual Average Record
Temperature  
Mean Temperature 34 °F -  
Max Temperature 42 °F 44 °F 73 °F (1999)
Min Temperature 27 °F 28 °F 6 °F (2003)
Degree Days  
Heating Degree Days 30    
Moisture  
Dew Point 34 °F    
Average Humidity 89    
Maximum Humidity 99    
Minimum Humidity 79    
Precipitation  
Precipitation 0.00 in - - ()
Sea Level Pressure  
Sea Level Pressure 30.06 in    
Wind  
Wind Speed 4 mph (ENE)    
Max Wind Speed 14 mph    
Max Gust Speed 21 mph    
Visibility 7 miles    
Events      
Averages and records for this station are not official NWS values.
T = Trace of Precipitation, MM = Missing Value Source: NWS Daily Summary

Daily Weather History Graph

Daily Weather History Graph

Search for Another Location

Airport:

Trip Planner

Search our weather history database for the weather conditions in past years. The results will help you decide how hot, cold, wet, or windy it might be!

Date:

Astronomy

Nov. 09, 2012 Rise Set
Actual Time 6:47 AM CST 4:36 PM CST
Civil Twilight 6:16 AM CST 5:07 PM CST
Nautical Twilight 5:41 AM CST 5:42 PM CST
Astronomical Twilight 5:07 AM CST 6:16 PM CST
Moon 1:35 AM CST (11/9) 1:58 PM CST (11/9)
Length of Visible Light 10h 51m
Length of Day
9h 49m
Waning Crescent, 23% of the Moon is Illuminated
Nov 9
Waning Crescent
Nov 13
New
Nov 20
First Quarter
Nov 28
Full
Dec 6
Last Quarter

Hourly Weather History & Observations

Time (CST) Temp. Windchill Dew Point Humidity Pressure Visibility Wind Dir Wind Speed Gust Speed Precip Events Conditions
12:15 AM 34.0 °F 31.0 °F 32.0 °F 92% 30.06 in 7.0 mi WSW 3.5 mph - N/A   Scattered Clouds
12:35 AM 34.2 °F - 32.0 °F 92% 30.04 in 7.0 mi Calm Calm - N/A   Mostly Cloudy
12:55 AM 34.7 °F - 32.2 °F 91% 30.04 in 7.0 mi Calm Calm - N/A   Mostly Cloudy
1:15 AM 35.1 °F - 32.2 °F 89% 30.04 in 7.0 mi Calm Calm - N/A   Overcast
1:35 AM 32.2 °F - 31.5 °F 97% 30.04 in 5.0 mi Calm Calm - N/A   Mostly Cloudy
1:55 AM 30.4 °F - 29.7 °F 97% 30.03 in 4.0 mi Calm Calm - N/A   Scattered Clouds
2:15 AM 28.9 °F - 28.0 °F 96% 30.03 in 3.0 mi Calm Calm - N/A   Clear
2:35 AM 28.6 °F - 28.0 °F 98% 30.03 in 3.0 mi Calm Calm - N/A   Clear
2:55 AM 28.4 °F - 28.0 °F 99% 30.04 in 3.0 mi Calm Calm - N/A   Clear
3:15 AM 27.0 °F - 26.4 °F 98% 30.03 in 3.0 mi Calm Calm - N/A   Clear
3:35 AM 27.0 °F - 26.6 °F 99% 30.03 in 3.0 mi Calm Calm - N/A   Clear
3:55 AM 28.2 °F 24.4 °F 27.7 °F 98% 30.04 in 4.0 mi NNE 3.5 mph - N/A   Clear
4:15 AM 28.4 °F - 27.9 °F 98% 30.04 in 4.0 mi Calm Calm - N/A   Clear
4:35 AM 28.0 °F 24.2 °F 27.3 °F 97% 30.05 in 4.0 mi NNE 3.5 mph - N/A   Clear
4:55 AM 29.1 °F 25.4 °F 28.6 °F 98% 30.05 in 3.0 mi NE 3.5 mph - N/A   Clear
5:15 AM 28.8 °F 25.0 °F 28.2 °F 98% 30.06 in 3.0 mi NE 3.5 mph - N/A   Clear
5:35 AM 29.7 °F - 29.3 °F 99% 30.06 in 3.0 mi Calm Calm - N/A   Clear
5:55 AM 29.7 °F 24.7 °F 29.3 °F 99% 30.06 in 3.0 mi NNE 4.6 mph - N/A   Clear
6:15 AM 29.5 °F 25.9 °F 29.1 °F 99% 30.06 in 3.0 mi NNE 3.5 mph - N/A   Clear
6:35 AM 30.6 °F - 30.0 °F 98% 30.07 in 4.0 mi Calm Calm - N/A   Clear
6:55 AM 28.2 °F - 27.7 °F 98% 30.07 in 2.5 mi Calm Calm - N/A   Scattered Clouds
7:15 AM 29.1 °F - 28.4 °F 97% 30.08 in 2.5 mi Calm Calm - N/A   Mostly Cloudy
7:35 AM 30.9 °F - 30.0 °F 96% 30.08 in 3.0 mi Calm Calm - N/A   Overcast
7:55 AM 31.8 °F - 31.3 °F 98% 30.09 in 2.0 mi Calm Calm - N/A   Overcast
8:15 AM 33.4 °F 29.1 °F 32.7 °F 97% 30.09 in 2.5 mi NE 4.6 mph - N/A   Overcast
8:35 AM 34.2 °F 29.0 °F 33.3 °F 97% 30.09 in 2.5 mi NNE 5.8 mph - N/A   Overcast
8:55 AM 35.6 °F 30.7 °F 33.8 °F 93% 30.08 in 3.0 mi ENE 5.8 mph - N/A   Overcast
9:15 AM 36.5 °F 31.0 °F 34.0 °F 91% 30.09 in 5.0 mi ENE 6.9 mph - N/A   Overcast
9:35 AM 37.0 °F 31.6 °F 33.8 °F 88% 30.09 in 7.0 mi ENE 6.9 mph - N/A   Overcast
9:55 AM 37.4 °F 32.1 °F 34.0 °F 87% 30.09 in 7.0 mi ENE 6.9 mph - N/A   Overcast
10:15 AM 38.3 °F 33.9 °F 34.2 °F 85% 30.09 in 10.0 mi ENE 5.8 mph - N/A   Overcast
10:35 AM 38.5 °F 34.1 °F 34.3 °F 85% 30.09 in 10.0 mi ENE 5.8 mph - N/A   Overcast
10:55 AM 39.2 °F 34.2 °F 34.5 °F 83% 30.08 in 10.0 mi ENE 6.9 mph - N/A   Overcast
11:15 AM 39.2 °F 33.6 °F 34.2 °F 82% 30.08 in 10.0 mi ENE 8.1 mph - N/A   Overcast
11:35 AM 40.1 °F 33.6 °F 34.7 °F 81% 30.07 in 10.0 mi ENE 10.4 mph - N/A   Overcast
11:55 AM 40.8 °F 35.0 °F 34.9 °F 79% 30.06 in 10.0 mi ENE 9.2 mph - N/A   Overcast
12:15 PM 41.4 °F 35.7 °F 35.2 °F 79% 30.05 in 10.0 mi ENE 9.2 mph - N/A   Overcast
12:35 PM 41.4 °F 34.7 °F 35.6 °F 80% 30.05 in 10.0 mi NE 11.5 mph - N/A   Overcast
12:55 PM 41.9 °F 35.9 °F 36.0 °F 79% 30.04 in 10.0 mi East 10.4 mph - N/A   Overcast
1:15 PM 41.9 °F 36.9 °F 36.1 °F 80% 30.04 in 10.0 mi East 8.1 mph - N/A   Overcast
1:35 PM 42.4 °F 36.5 °F 36.5 °F 79% 30.04 in 10.0 mi ENE 10.4 mph - N/A   Overcast
1:55 PM 42.3 °F 37.9 °F 36.7 °F 81% 30.03 in 10.0 mi ENE 6.9 mph - N/A   Overcast
2:15 PM 42.3 °F 36.8 °F 36.9 °F 81% 30.03 in 10.0 mi East 9.2 mph - N/A   Overcast
2:35 PM 42.4 °F 37.5 °F 36.7 °F 80% 30.03 in 7.0 mi ENE 8.1 mph - N/A   Overcast
2:55 PM 42.4 °F 37.0 °F 36.9 °F 81% 30.03 in 7.0 mi East 9.2 mph - N/A   Overcast
3:15 PM 42.4 °F 37.0 °F 37.0 °F 81% 30.03 in 7.0 mi ENE 9.2 mph - N/A   Overcast
3:35 PM 42.4 °F 37.0 °F 37.4 °F 82% 30.03 in 7.0 mi ENE 9.2 mph - N/A   Overcast
3:55 PM 42.4 °F 38.8 °F 37.6 °F 83% 30.03 in 7.0 mi ENE 5.8 mph - N/A   Overcast
4:15 PM 42.4 °F 37.5 °F 37.9 °F 84% 30.04 in 7.0 mi ENE 8.1 mph - N/A   Overcast
4:35 PM 42.3 °F 37.3 °F 37.9 °F 85% 30.04 in 7.0 mi ENE 8.1 mph - N/A   Overcast
4:55 PM 42.3 °F 37.3 °F 38.3 °F 86% 30.04 in 7.0 mi ENE 8.1 mph - N/A   Overcast
5:35 PM 42.1 °F 37.1 °F 38.3 °F 86% 30.04 in 10.0 mi ENE 8.1 mph - N/A   Overcast
5:55 PM 42.3 °F 35.5 °F 38.5 °F 86% 30.04 in 10.0 mi East 12.7 mph 17.3 mph N/A   Overcast
6:15 PM 42.3 °F 36.3 °F 38.3 °F 86% 30.04 in 10.0 mi ENE 10.4 mph 17.3 mph N/A   Overcast
6:35 PM 42.1 °F 36.1 °F 37.9 °F 85% 30.04 in 10.0 mi ENE 10.4 mph 18.4 mph N/A   Overcast
6:55 PM 41.9 °F 35.4 °F 37.4 °F 84% 30.04 in 10.0 mi East 11.5 mph 18.4 mph N/A   Overcast
7:15 PM 41.5 °F 34.2 °F 36.7 °F 83% 30.04 in 10.0 mi ENE 13.8 mph 17.3 mph N/A   Overcast
7:55 PM 41.0 °F 34.3 °F 35.2 °F 80% 30.06 in 10.0 mi East 11.5 mph 18.4 mph N/A   Overcast
8:15 PM 40.8 °F 34.1 °F 35.1 °F 80% 30.06 in 10.0 mi East 11.5 mph - N/A   Overcast
8:35 PM 40.6 °F 34.3 °F 35.6 °F 82% 30.07 in 10.0 mi East 10.4 mph 19.6 mph N/A   Overcast
8:55 PM 40.6 °F 33.4 °F 36.0 °F 83% 30.07 in 10.0 mi East 12.7 mph 20.7 mph N/A   Overcast
9:15 PM 40.5 °F 32.8 °F 36.5 °F 86% 30.07 in 10.0 mi East 13.8 mph - N/A   Overcast
9:35 PM 40.1 °F 34.1 °F 36.9 °F 88% 30.07 in 10.0 mi East 9.2 mph - N/A   Overcast
9:55 PM 40.1 °F 33.2 °F 36.9 °F 88% 30.07 in 10.0 mi East 11.5 mph 20.7 mph N/A   Overcast
10:15 PM 40.1 °F 34.1 °F 37.2 °F 89% 30.07 in 10.0 mi East 9.2 mph 12.7 mph N/A   Overcast
10:35 PM 40.1 °F 33.6 °F 37.4 °F 90% 30.07 in 10.0 mi East 10.4 mph 17.3 mph N/A   Overcast
10:55 PM 39.6 °F 34.0 °F 37.4 °F 92% 30.07 in 10.0 mi East 8.1 mph 18.4 mph N/A   Overcast
11:15 PM 39.4 °F 32.3 °F 37.4 °F 93% 30.07 in 10.0 mi East 11.5 mph 17.3 mph N/A   Overcast
11:35 PM 39.4 °F 33.2 °F 37.0 °F 91% 30.07 in 10.0 mi ENE 9.2 mph - N/A   Overcast
11:55 PM 39.2 °F 31.6 °F 36.5 °F 90% 30.06 in 10.0 mi ENE 12.7 mph 18.4 mph N/A   Overcast